Location: Bidwell Hollow
(37.7387°N, 90.1707°W)
Time: 11:21:11
(UTC+00:00)

SEEDS - Visible Passes

Search period start: 07 February 2026 00:00
Search period end: 17 February 2026 00:00
Orbit: 479 x 486 km, 97.7° (Epoch: 7 February)

Date Brightness Start Highest point End Pass type
(mag) Time Alt. Az. Time Alt. Az. Time Alt. Az.
7 Feb ? 10:27:47 10° NE 10:30:29 20° E 10:33:10 10° SE visible
7 Feb ? 12:01:01 10° NNW 12:03:44 21° WNW 12:06:26 10° WSW visible
8 Feb ? 11:35:28 10° N 11:38:52 43° WNW 11:42:16 10° SW visible
9 Feb ? 11:10:17 10° NNE 11:13:52 80° E 11:17:26 10° S visible
10 Feb ? 10:45:27 10° NNE 10:48:44 34° E 10:52:00 10° SSE visible
10 Feb ? 12:20:05 10° NW 12:21:45 13° WNW 12:23:24 10° W visible
11 Feb ? 10:21:10 10° NE 10:23:27 16° E 10:25:44 10° SE visible
11 Feb ? 11:53:47 10° NNW 11:56:47 26° WNW 11:59:47 10° SW visible
12 Feb ? 11:28:11 10° N 11:31:42 57° WNW 11:35:12 10° SSW visible
13 Feb ? 11:02:55 10° NNE 11:06:28 60° E 11:09:59 10° S visible
14 Feb ? 10:38:03 10° NE 10:41:06 26° E 10:44:09 10° SSE visible
14 Feb ? 12:11:56 10° NNW 12:14:13 16° WNW 12:16:29 10° WSW visible
15 Feb ? 10:14:02 10° ENE 10:15:36 12° E 10:17:10 10° ESE visible
15 Feb ? 11:45:48 10° N 11:49:02 33° WNW 11:52:16 10° SW visible
16 Feb ? 11:20:08 10° N 11:23:42 77° WNW 11:27:16 10° SSW visible
